Time,TemperatureF,DewpointF,PressureIn,WindDirection,WindDirectionDegrees,WindSpeedMPH,WindSpeedGustMPH,Humidity,HourlyPrecipIn,Conditions,Clouds,dailyrainin,SoftwareType,DateUTC
2013-06-06 00:05:00,56.2,47.7,30.20,South,181,1.0,3.0,73,0.00,,,0.00,Wunderground v.1.15,2013-06-06 04:05:00,
2013-06-06 00:10:00,56.2,47.7,30.21,South,180,1.0,3.0,73,0.00,,,0.00,Wunderground v.1.15,2013-06-06 04:10:00,
2013-06-06 00:15:00,56.2,47.3,30.21,South,170,5.0,5.0,72,0.00,,,0.00,Wunderground v.1.15,2013-06-06 04:15:00,
2013-06-06 00:20:00,56.2,47.3,30.20,SSE,165,1.0,5.0,72,0.00,,,0.00,Wunderground v.1.15,2013-06-06 04:20:00,
2013-06-06 00:25:00,56.2,47.3,30.21,SSE,165,1.0,2.0,72,0.00,,,0.00,Wunderground v.1.15,2013-06-06 04:25:00,
2013-06-06 00:30:00,56.0,47.5,30.21,SSE,165,0.0,4.0,73,0.00,,,0.00,Wunderground v.1.15,2013-06-06 04:30:00,
2013-06-06 00:36:00,55.8,47.3,30.21,SE,146,0.0,4.0,73,0.00,,,0.00,Wunderground v.1.15,2013-06-06 04:36:00,
2013-06-06 00:41:00,55.7,47.2,30.21,SE,146,1.0,4.0,73,0.00,,,0.00,Wunderground v.1.15,2013-06-06 04:41:00,
2013-06-06 00:47:00,55.6,47.4,30.21,SE,146,3.0,3.0,74,0.00,,,0.00,Wunderground v.1.15,2013-06-06 04:47:00,
2013-06-06 00:52:00,55.6,47.4,30.21,SE,146,1.0,1.0,74,0.00,,,0.00,Wunderground v.1.15,2013-06-06 04:52:00,
2013-06-06 00:58:00,55.5,47.3,30.21,SE,146,2.0,2.0,74,0.00,,,0.00,Wunderground v.1.15,2013-06-06 04:58:00,
2013-06-06 01:04:00,55.7,47.9,30.20,SE,146,1.0,2.0,75,0.00,,,0.00,Wunderground v.1.15,2013-06-06 05:04:00,
2013-06-06 01:09:00,55.7,49.3,30.20,SE,146,0.0,2.0,79,0.00,,,0.00,Wunderground v.1.15,2013-06-06 05:09:00,
2013-06-06 01:15:00,55.7,47.9,30.20,SE,146,1.0,1.0,75,0.00,,,0.00,Wunderground v.1.15,2013-06-06 05:15:00,
2013-06-06 01:21:00,55.5,47.7,30.20,SE,146,0.0,1.0,75,0.00,,,0.00,Wunderground v.1.15,2013-06-06 05:21:00,
2013-06-06 01:27:00,55.3,47.5,30.20,SE,146,1.0,2.0,75,0.00,,,0.00,Wunderground v.1.15,2013-06-06 05:27:00,
2013-06-06 01:33:00,55.1,47.7,30.20,SE,146,0.0,0.0,76,0.00,,,0.00,Wunderground v.1.15,2013-06-06 05:33:00,
2013-06-06 01:38:00,54.9,47.8,30.20,SE,146,0.0,2.0,77,0.00,,,0.00,Wunderground v.1.15,2013-06-06 05:38:00,
2013-06-06 01:44:00,54.7,48.0,30.20,SE,146,1.0,1.0,78,0.00,,,0.00,Wunderground v.1.15,2013-06-06 05:44:00,
2013-06-06 01:50:00,54.3,47.9,30.21,SE,146,0.0,2.0,79,0.00,,,0.00,Wunderground v.1.15,2013-06-06 05:50:00,
2013-06-06 01:56:00,54.1,48.1,30.21,SE,146,0.0,2.0,80,0.00,,,0.00,Wunderground v.1.15,2013-06-06 05:56:00,
2013-06-06 02:01:00,53.9,47.9,30.21,SE,146,0.0,2.0,80,0.00,,,0.00,Wunderground v.1.15,2013-06-06 06:01:00,
2013-06-06 02:07:00,53.9,47.9,30.21,SE,146,0.0,2.0,80,0.00,,,0.00,Wunderground v.1.15,2013-06-06 06:07:00,
2013-06-06 02:13:00,53.8,47.8,30.21,SE,146,0.0,1.0,80,0.00,,,0.00,Wunderground v.1.15,2013-06-06 06:13:00,
2013-06-06 02:19:00,53.8,47.8,30.21,SE,146,1.0,1.0,80,0.00,,,0.00,Wunderground v.1.15,2013-06-06 06:19:00,
2013-06-06 02:24:00,53.8,47.8,30.21,SE,146,1.0,1.0,80,0.00,,,0.00,Wunderground v.1.15,2013-06-06 06:24:00,
2013-06-06 02:29:00,53.7,48.0,30.21,SE,146,0.0,1.0,81,0.00,,,0.00,Wunderground v.1.15,2013-06-06 06:29:00,
2013-06-06 02:34:00,53.6,47.9,30.21,SE,146,0.0,1.0,81,0.00,,,0.00,Wunderground v.1.15,2013-06-06 06:34:00,
2013-06-06 02:39:00,53.5,48.1,30.21,SE,146,0.0,1.0,82,0.00,,,0.00,Wunderground v.1.15,2013-06-06 06:39:00,
2013-06-06 02:44:00,53.3,47.9,30.21,SE,146,1.0,1.0,82,0.00,,,0.00,Wunderground v.1.15,2013-06-06 06:44:00,
2013-06-06 02:49:00,53.2,47.8,30.21,SE,146,0.0,1.0,82,0.00,,,0.00,Wunderground v.1.15,2013-06-06 06:49:00,
2013-06-06 02:54:00,53.1,47.7,30.21,SE,146,0.0,0.0,82,0.00,,,0.00,Wunderground v.1.15,2013-06-06 06:54:00,
2013-06-06 02:59:00,53.1,48.1,30.21,SE,146,0.0,0.0,83,0.00,,,0.00,Wunderground v.1.15,2013-06-06 06:59:00,
2013-06-06 03:04:00,53.0,48.0,30.22,SE,146,1.0,1.0,83,0.00,,,0.00,Wunderground v.1.15,2013-06-06 07:04:00,
2013-06-06 03:09:00,52.8,48.1,30.22,SE,146,0.0,1.0,84,0.00,,,0.00,Wunderground v.1.15,2013-06-06 07:09:00,
2013-06-06 03:14:00,52.6,48.2,30.22,SE,146,0.0,1.0,85,0.00,,,0.00,Wunderground v.1.15,2013-06-06 07:14:00,
2013-06-06 03:19:00,52.4,48.3,30.22,SE,146,0.0,2.0,86,0.00,,,0.00,Wunderground v.1.15,2013-06-06 07:19:00,
2013-06-06 03:24:00,52.4,48.3,30.21,SE,146,0.0,0.0,86,0.00,,,0.00,Wunderground v.1.15,2013-06-06 07:24:00,
2013-06-06 03:29:00,52.4,48.3,30.20,SE,146,0.0,0.0,86,0.00,,,0.00,Wunderground v.1.15,2013-06-06 07:29:00,
2013-06-06 03:34:00,52.3,48.2,30.21,SE,146,0.0,1.0,86,0.00,,,0.00,Wunderground v.1.15,2013-06-06 07:34:00,
2013-06-06 03:39:00,52.2,48.1,30.22,SE,146,0.0,1.0,86,0.00,,,0.00,Wunderground v.1.15,2013-06-06 07:39:00,
2013-06-06 03:44:00,52.1,48.0,30.21,SE,146,0.0,0.0,86,0.00,,,0.00,Wunderground v.1.15,2013-06-06 07:44:00,
2013-06-06 03:49:00,52.1,48.3,30.22,SE,146,0.0,0.0,87,0.00,,,0.00,Wunderground v.1.15,2013-06-06 07:49:00,
2013-06-06 03:54:00,51.9,48.2,30.22,SE,146,0.0,1.0,87,0.00,,,0.00,Wunderground v.1.15,2013-06-06 07:54:00,
2013-06-06 03:59:00,51.8,48.1,30.22,SE,146,0.0,1.0,87,0.00,,,0.00,Wunderground v.1.15,2013-06-06 07:59:00,
2013-06-06 04:04:00,51.7,48.0,30.22,SE,146,0.0,0.0,87,0.00,,,0.00,Wunderground v.1.15,2013-06-06 08:04:00,
2013-06-06 04:09:00,51.6,47.9,30.22,SE,146,0.0,0.0,87,0.00,,,0.00,Wunderground v.1.15,2013-06-06 08:09:00,
2013-06-06 04:14:00,51.4,48.0,30.22,SE,146,0.0,0.0,88,0.00,,,0.00,Wunderground v.1.15,2013-06-06 08:14:00,
2013-06-06 04:19:00,51.4,48.0,30.22,SE,146,0.0,0.0,88,0.00,,,0.00,Wunderground v.1.15,2013-06-06 08:19:00,
2013-06-06 04:24:00,51.4,48.0,30.21,SE,146,0.0,0.0,88,0.00,,,0.00,Wunderground v.1.15,2013-06-06 08:24:00,
2013-06-06 04:29:00,51.4,48.0,30.21,SE,146,0.0,0.0,88,0.00,,,0.00,Wunderground v.1.15,2013-06-06 08:29:00,
2013-06-06 04:34:00,51.3,47.9,30.21,SE,146,0.0,0.0,88,0.00,,,0.00,Wunderground v.1.15,2013-06-06 08:34:00,
2013-06-06 04:39:00,51.2,47.8,30.21,SE,146,0.0,0.0,88,0.00,,,0.00,Wunderground v.1.15,2013-06-06 08:39:00,
2013-06-06 04:44:00,51.1,47.7,30.21,SE,146,0.0,0.0,88,0.00,,,0.00,Wunderground v.1.15,2013-06-06 08:44:00,
2013-06-06 04:49:00,50.9,47.5,30.21,SE,146,0.0,0.0,88,0.00,,,0.00,Wunderground v.1.15,2013-06-06 08:49:00,
2013-06-06 04:54:00,50.8,47.4,30.21,SE,146,0.0,0.0,88,0.00,,,0.00,Wunderground v.1.15,2013-06-06 08:54:00,
2013-06-06 04:59:00,50.7,47.3,30.22,SE,146,0.0,0.0,88,0.00,,,0.00,Wunderground v.1.15,2013-06-06 08:59:00,
2013-06-06 05:04:00,50.6,47.2,30.22,SE,146,0.0,0.0,88,0.00,,,0.00,Wunderground v.1.15,2013-06-06 09:04:00,
2013-06-06 05:09:00,50.4,47.3,30.21,SE,146,0.0,0.0,89,0.00,,,0.00,Wunderground v.1.15,2013-06-06 09:09:00,
2013-06-06 05:14:00,50.2,47.1,30.21,SE,146,0.0,1.0,89,0.00,,,0.00,Wunderground v.1.15,2013-06-06 09:14:00,
2013-06-06 05:19:00,50.0,46.9,30.21,SE,146,0.0,1.0,89,0.00,,,0.00,Wunderground v.1.15,2013-06-06 09:19:00,
2013-06-06 05:24:00,50.0,46.9,30.21,SE,146,0.0,0.0,89,0.00,,,0.00,Wunderground v.1.15,2013-06-06 09:24:00,
2013-06-06 05:29:00,49.9,46.8,30.21,SE,146,0.0,0.0,89,0.00,,,0.00,Wunderground v.1.15,2013-06-06 09:29:00,
2013-06-06 05:34:00,49.8,46.7,30.21,SE,146,0.0,0.0,89,0.00,,,0.00,Wunderground v.1.15,2013-06-06 09:34:00,
2013-06-06 05:39:00,49.8,46.7,30.21,SE,146,0.0,0.0,89,0.00,,,0.00,Wunderground v.1.15,2013-06-06 09:39:00,
2013-06-06 05:44:00,49.8,46.7,30.21,SE,146,0.0,0.0,89,0.00,,,0.00,Wunderground v.1.15,2013-06-06 09:44:00,
2013-06-06 05:49:00,49.9,46.8,30.21,SE,146,0.0,0.0,89,0.00,,,0.00,Wunderground v.1.15,2013-06-06 09:49:00,
2013-06-06 05:54:00,49.9,46.8,30.22,SE,146,0.0,0.0,89,0.00,,,0.00,Wunderground v.1.15,2013-06-06 09:54:00,
2013-06-06 05:59:00,50.0,46.9,30.22,SE,146,1.0,1.0,89,0.00,,,0.00,Wunderground v.1.15,2013-06-06 09:59:00,
2013-06-06 06:04:00,50.3,47.2,30.22,SE,146,0.0,0.0,89,0.00,,,0.00,Wunderground v.1.15,2013-06-06 10:04:00,
2013-06-06 06:09:00,50.5,47.4,30.22,SE,146,0.0,0.0,89,0.00,,,0.00,Wunderground v.1.15,2013-06-06 10:09:00,
2013-06-06 06:14:00,50.6,47.5,30.23,SE,146,0.0,1.0,89,0.00,,,0.00,Wunderground v.1.15,2013-06-06 10:14:00,
2013-06-06 06:19:00,50.8,47.7,30.23,SE,146,1.0,1.0,89,0.00,,,0.00,Wunderground v.1.15,2013-06-06 10:19:00,
2013-06-06 06:24:00,51.0,47.9,30.23,SE,146,0.0,1.0,89,0.00,,,0.00,Wunderground v.1.15,2013-06-06 10:24:00,
2013-06-06 06:29:00,51.4,48.3,30.22,SE,146,0.0,1.0,89,0.00,,,0.00,Wunderground v.1.15,2013-06-06 10:29:00,
2013-06-06 06:34:00,52.4,49.3,30.22,SE,146,0.0,1.0,89,0.00,,,0.00,Wunderground v.1.15,2013-06-06 10:34:00,
2013-06-06 06:39:00,52.6,49.1,30.23,SE,146,1.0,2.0,88,0.00,,,0.00,Wunderground v.1.15,2013-06-06 10:39:00,
2013-06-06 06:44:00,52.8,49.0,30.23,SE,146,1.0,1.0,87,0.00,,,0.00,Wunderground v.1.15,2013-06-06 10:44:00,
2013-06-06 06:49:00,53.0,49.2,30.22,SE,146,0.0,1.0,87,0.00,,,0.00,Wunderground v.1.15,2013-06-06 10:49:00,
2013-06-06 06:54:00,53.0,49.2,30.22,SE,146,0.0,2.0,87,0.00,,,0.00,Wunderground v.1.15,2013-06-06 10:54:00,
2013-06-06 06:59:00,53.2,49.4,30.22,SE,146,2.0,2.0,87,0.00,,,0.00,Wunderground v.1.15,2013-06-06 10:59:00,
2013-06-06 07:04:00,53.6,49.5,30.23,SE,146,0.0,1.0,86,0.00,,,0.00,Wunderground v.1.15,2013-06-06 11:04:00,
2013-06-06 07:09:00,54.4,50.3,30.24,SE,146,0.0,1.0,86,0.00,,,0.00,Wunderground v.1.15,2013-06-06 11:09:00,
2013-06-06 07:14:00,55.4,50.6,30.23,SE,146,0.0,1.0,84,0.00,,,0.00,Wunderground v.1.15,2013-06-06 11:14:00,
2013-06-06 07:19:00,55.9,51.1,30.24,SE,146,0.0,1.0,84,0.00,,,0.00,Wunderground v.1.15,2013-06-06 11:19:00,
2013-06-06 07:24:00,56.0,51.2,30.24,SE,146,0.0,1.0,84,0.00,,,0.00,Wunderground v.1.15,2013-06-06 11:24:00,
2013-06-06 07:29:00,56.2,51.4,30.24,SE,146,2.0,2.0,84,0.00,,,0.00,Wunderground v.1.15,2013-06-06 11:29:00,
2013-06-06 07:34:00,56.3,51.5,30.24,SE,146,0.0,1.0,84,0.00,,,0.00,Wunderground v.1.15,2013-06-06 11:34:00,
2013-06-06 07:39:00,56.4,51.6,30.24,SE,146,0.0,2.0,84,0.00,,,0.00,Wunderground v.1.15,2013-06-06 11:39:00,
2013-06-06 07:44:00,56.8,52.3,30.24,SE,146,0.0,1.0,85,0.00,,,0.00,Wunderground v.1.15,2013-06-06 11:44:00,
2013-06-06 07:49:00,57.0,52.5,30.24,SE,146,0.0,2.0,85,0.00,,,0.00,Wunderground v.1.15,2013-06-06 11:49:00,
2013-06-06 07:54:00,57.5,52.7,30.24,SE,146,0.0,2.0,84,0.00,,,0.00,Wunderground v.1.15,2013-06-06 11:54:00,
2013-06-06 07:59:00,57.7,52.6,30.24,SE,146,0.0,2.0,83,0.00,,,0.00,Wunderground v.1.15,2013-06-06 11:59:00,
2013-06-06 08:04:00,58.6,53.5,30.23,SE,146,1.0,1.0,83,0.00,,,0.00,Wunderground v.1.15,2013-06-06 12:04:00,
2013-06-06 08:09:00,59.4,53.9,30.23,SE,146,0.0,1.0,82,0.00,,,0.00,Wunderground v.1.15,2013-06-06 12:09:00,
2013-06-06 08:14:00,60.1,53.9,30.23,SE,146,1.0,2.0,80,0.00,,,0.00,Wunderground v.1.15,2013-06-06 12:14:00,
2013-06-06 08:19:00,60.5,53.6,30.23,SE,146,1.0,2.0,78,0.00,,,0.00,Wunderground v.1.15,2013-06-06 12:19:00,
2013-06-06 08:24:00,61.0,53.7,30.23,SE,146,0.0,2.0,77,0.00,,,0.00,Wunderground v.1.15,2013-06-06 12:24:00,
2013-06-06 08:29:00,61.7,52.6,30.23,SE,146,0.0,2.0,72,0.00,,,0.00,Wunderground v.1.15,2013-06-06 12:29:00,
2013-06-06 08:34:00,62.9,53.7,30.23,SE,146,0.0,1.0,72,0.00,,,0.00,Wunderground v.1.15,2013-06-06 12:34:00,
2013-06-06 08:39:00,63.7,54.5,30.23,SE,146,0.0,1.0,72,0.00,,,0.00,Wunderground v.1.15,2013-06-06 12:39:00,
2013-06-06 08:44:00,64.3,53.9,30.23,SE,146,1.0,1.0,69,0.00,,,0.00,Wunderground v.1.15,2013-06-06 12:44:00,
2013-06-06 08:49:00,64.5,53.3,30.23,SE,146,0.0,2.0,67,0.00,,,0.00,Wunderground v.1.15,2013-06-06 12:49:00,
2013-06-06 08:54:00,64.3,53.5,30.23,SE,146,0.0,2.0,68,0.00,,,0.00,Wunderground v.1.15,2013-06-06 12:54:00,
2013-06-06 08:59:00,64.3,53.1,30.23,SE,146,0.0,2.0,67,0.00,,,0.00,Wunderground v.1.15,2013-06-06 12:59:00,
2013-06-06 09:04:00,64.5,52.9,30.22,SE,146,1.0,1.0,66,0.00,,,0.00,Wunderground v.1.15,2013-06-06 13:04:00,
2013-06-06 09:09:00,64.9,52.8,30.22,SE,146,1.0,3.0,65,0.00,,,0.00,Wunderground v.1.15,2013-06-06 13:09:00,
2013-06-06 09:14:00,64.7,53.1,30.22,SE,146,0.0,3.0,66,0.00,,,0.00,Wunderground v.1.15,2013-06-06 13:14:00,
2013-06-06 09:19:00,65.1,53.5,30.22,SSE,149,0.0,3.0,66,0.00,,,0.00,Wunderground v.1.15,2013-06-06 13:19:00,
2013-06-06 09:24:00,65.4,53.7,30.22,SSW,197,3.0,5.0,66,0.00,,,0.00,Wunderground v.1.15,2013-06-06 13:24:00,
2013-06-06 09:29:00,64.8,52.3,30.22,SSW,199,1.0,5.0,64,0.00,,,0.00,Wunderground v.1.15,2013-06-06 13:29:00,
2013-06-06 09:34:00,64.8,53.2,30.22,SSW,200,1.0,2.0,66,0.00,,,0.00,Wunderground v.1.15,2013-06-06 13:34:00,
2013-06-06 09:39:00,65.4,52.9,30.22,South,178,4.0,6.0,64,0.00,,,0.00,Wunderground v.1.15,2013-06-06 13:39:00,
2013-06-06 09:44:00,65.9,52.9,30.22,South,178,1.0,3.0,63,0.00,,,0.00,Wunderground v.1.15,2013-06-06 13:44:00,
2013-06-06 09:49:00,66.2,53.2,30.22,South,178,1.0,3.0,63,0.00,,,0.00,Wunderground v.1.15,2013-06-06 13:49:00,
2013-06-06 09:54:00,66.2,52.8,30.21,South,179,2.0,4.0,62,0.00,,,0.00,Wunderground v.1.15,2013-06-06 13:54:00,
2013-06-06 09:59:00,66.3,53.3,30.21,South,182,0.0,4.0,63,0.00,,,0.00,Wunderground v.1.15,2013-06-06 13:59:00,
2013-06-06 10:04:00,66.7,53.7,30.21,SSE,166,1.0,6.0,63,0.00,,,0.00,Wunderground v.1.15,2013-06-06 14:04:00,
2013-06-06 10:09:00,66.7,52.8,30.21,SSE,154,1.0,6.0,61,0.00,,,0.00,Wunderground v.1.15,2013-06-06 14:09:00,
2013-06-06 10:14:00,66.8,53.4,30.21,SSE,159,4.0,5.0,62,0.00,,,0.00,Wunderground v.1.15,2013-06-06 14:14:00,
2013-06-06 10:19:00,66.3,52.0,30.21,SSE,157,3.0,6.0,60,0.00,,,0.00,Wunderground v.1.15,2013-06-06 14:19:00,
2013-06-06 10:24:00,66.5,51.7,30.22,South,169,1.0,6.0,59,0.00,,,0.00,Wunderground v.1.15,2013-06-06 14:24:00,
2013-06-06 10:29:00,66.6,52.3,30.21,ESE,121,2.0,6.0,60,0.00,,,0.00,Wunderground v.1.15,2013-06-06 14:29:00,
2013-06-06 10:34:00,66.9,52.1,30.21,South,179,0.0,5.0,59,0.00,,,0.00,Wunderground v.1.15,2013-06-06 14:34:00,
2013-06-06 10:39:00,67.0,51.7,30.22,SSE,163,4.0,8.0,58,0.00,,,0.00,Wunderground v.1.15,2013-06-06 14:39:00,
2013-06-06 10:44:00,66.9,52.6,30.22,SE,144,2.0,3.0,60,0.00,,,0.00,Wunderground v.1.15,2013-06-06 14:44:00,
2013-06-06 10:49:00,67.0,52.7,30.21,South,180,1.0,6.0,60,0.00,,,0.00,Wunderground v.1.15,2013-06-06 14:49:00,
2013-06-06 10:54:00,67.1,51.8,30.21,SSE,164,1.0,10.0,58,0.00,,,0.00,Wunderground v.1.15,2013-06-06 14:54:00,
2013-06-06 10:59:00,67.4,52.1,30.21,ESE,119,1.0,10.0,58,0.00,,,0.00,Wunderground v.1.15,2013-06-06 14:59:00,
2013-06-06 11:04:00,67.9,53.0,30.21,SSE,160,1.0,4.0,59,0.00,,,0.00,Wunderground v.1.15,2013-06-06 15:04:00,
2013-06-06 11:09:00,68.4,53.5,30.21,SSE,161,4.0,7.0,59,0.00,,,0.00,Wunderground v.1.15,2013-06-06 15:09:00,
2013-06-06 11:14:00,68.7,52.8,30.21,East,101,2.0,6.0,57,0.00,,,0.00,Wunderground v.1.15,2013-06-06 15:14:00,
2013-06-06 11:19:00,68.4,53.5,30.21,SSW,198,2.0,6.0,59,0.00,,,0.00,Wunderground v.1.15,2013-06-06 15:19:00,
2013-06-06 11:24:00,68.4,53.5,30.21,SE,131,2.0,4.0,59,0.00,,,0.00,Wunderground v.1.15,2013-06-06 15:24:00,
2013-06-06 11:29:00,68.7,53.3,30.21,SE,144,5.0,7.0,58,0.00,,,0.00,Wunderground v.1.15,2013-06-06 15:29:00,
2013-06-06 11:34:00,69.1,54.6,30.21,SSE,168,4.0,7.0,60,0.00,,,0.00,Wunderground v.1.15,2013-06-06 15:34:00,
2013-06-06 11:39:00,69.2,53.3,30.20,SW,217,3.0,9.0,57,0.00,,,0.00,Wunderground v.1.15,2013-06-06 15:39:00,
2013-06-06 11:44:00,69.5,54.1,30.20,SSE,155,3.0,11.0,58,0.00,,,0.00,Wunderground v.1.15,2013-06-06 15:44:00,
2013-06-06 11:49:00,69.3,53.4,30.20,SSW,193,4.0,11.0,57,0.00,,,0.00,Wunderground v.1.15,2013-06-06 15:49:00,
2013-06-06 11:54:00,69.7,49.7,30.20,South,182,2.0,9.0,49,0.00,,,0.00,Wunderground v.1.15,2013-06-06 15:54:00,
2013-06-06 11:59:00,70.1,50.6,30.20,SSW,196,3.0,9.0,50,0.00,,,0.00,Wunderground v.1.15,2013-06-06 15:59:00,
2013-06-06 12:04:00,70.3,51.8,30.20,South,187,4.0,6.0,52,0.00,,,0.00,Wunderground v.1.15,2013-06-06 16:04:00,
2013-06-06 12:09:00,70.3,51.3,30.20,SSE,163,6.0,8.0,51,0.00,,,0.00,Wunderground v.1.15,2013-06-06 16:09:00,
2013-06-06 12:14:00,70.4,51.4,30.20,SSW,208,3.0,7.0,51,0.00,,,0.00,Wunderground v.1.15,2013-06-06 16:14:00,
2013-06-06 12:19:00,70.1,50.6,30.20,South,186,1.0,10.0,50,0.00,,,0.00,Wunderground v.1.15,2013-06-06 16:19:00,
2013-06-06 12:24:00,70.2,51.2,30.20,South,174,5.0,6.0,51,0.00,,,0.00,Wunderground v.1.15,2013-06-06 16:24:00,
2013-06-06 12:29:00,70.6,52.6,30.19,ESE,108,2.0,6.0,53,0.00,,,0.00,Wunderground v.1.15,2013-06-06 16:29:00,
2013-06-06 12:34:00,70.7,50.0,30.19,WSW,243,4.0,9.0,48,0.00,,,0.00,Wunderground v.1.15,2013-06-06 16:34:00,
2013-06-06 12:39:00,70.3,50.8,30.19,South,171,1.0,12.0,50,0.00,,,0.00,Wunderground v.1.15,2013-06-06 16:39:00,
2013-06-06 12:44:00,70.4,49.8,30.19,SW,233,5.0,11.0,48,0.00,,,0.00,Wunderground v.1.15,2013-06-06 16:44:00,
2013-06-06 12:49:00,69.7,50.8,30.18,SSE,155,12.0,12.0,51,0.00,,,0.00,Wunderground v.1.15,2013-06-06 16:49:00,
2013-06-06 12:54:00,70.0,50.5,30.18,SW,221,6.0,8.0,50,0.00,,,0.00,Wunderground v.1.15,2013-06-06 16:54:00,
2013-06-06 12:59:00,70.2,51.7,30.18,South,180,10.0,13.0,52,0.00,,,0.00,Wunderground v.1.15,2013-06-06 16:59:00,
2013-06-06 13:04:00,70.4,51.4,30.18,SSE,158,3.0,9.0,51,0.00,,,0.00,Wunderground v.1.15,2013-06-06 17:04:00,
2013-06-06 13:09:00,70.7,50.6,30.18,ESE,108,3.0,13.0,49,0.00,,,0.00,Wunderground v.1.15,2013-06-06 17:09:00,
2013-06-06 13:14:00,70.3,51.3,30.18,South,179,5.0,11.0,51,0.00,,,0.00,Wunderground v.1.15,2013-06-06 17:14:00,
2013-06-06 13:19:00,70.4,49.8,30.18,SSW,211,4.0,11.0,48,0.00,,,0.00,Wunderground v.1.15,2013-06-06 17:19:00,
2013-06-06 13:24:00,70.8,50.1,30.18,South,188,5.0,9.0,48,0.00,,,0.00,Wunderground v.1.15,2013-06-06 17:24:00,
2013-06-06 13:29:00,70.3,49.1,30.18,SE,146,2.0,15.0,47,0.00,,,0.00,Wunderground v.1.15,2013-06-06 17:29:00,
2013-06-06 13:34:00,70.4,48.0,30.18,South,182,7.0,11.0,45,0.00,,,0.00,Wunderground v.1.15,2013-06-06 17:34:00,
2013-06-06 13:39:00,70.0,48.3,30.18,SSE,157,7.0,11.0,46,0.00,,,0.00,Wunderground v.1.15,2013-06-06 17:39:00,
2013-06-06 13:44:00,69.6,47.9,30.18,SW,215,6.0,9.0,46,0.00,,,0.00,Wunderground v.1.15,2013-06-06 17:44:00,
2013-06-06 13:49:00,69.5,48.4,30.18,SSW,206,3.0,9.0,47,0.00,,,0.00,Wunderground v.1.15,2013-06-06 17:49:00,
2013-06-06 13:54:00,69.6,47.3,30.18,South,178,11.0,11.0,45,0.00,,,0.00,Wunderground v.1.15,2013-06-06 17:54:00,
2013-06-06 13:59:00,69.4,48.3,30.17,South,180,3.0,12.0,47,0.00,,,0.00,Wunderground v.1.15,2013-06-06 17:59:00,
2013-06-06 14:04:00,69.3,49.3,30.17,SE,142,5.0,9.0,49,0.00,,,0.00,Wunderground v.1.15,2013-06-06 18:04:00,
2013-06-06 14:09:00,69.3,49.9,30.17,SSW,211,2.0,10.0,50,0.00,,,0.00,Wunderground v.1.15,2013-06-06 18:09:00,
2013-06-06 14:14:00,69.6,47.9,30.17,SSW,202,5.0,12.0,46,0.00,,,0.00,Wunderground v.1.15,2013-06-06 18:14:00,
2013-06-06 14:19:00,69.7,47.4,30.17,SE,143,6.0,12.0,45,0.00,,,0.00,Wunderground v.1.15,2013-06-06 18:19:00,
2013-06-06 14:24:00,69.6,44.2,30.17,South,174,5.0,16.0,40,0.00,,,0.00,Wunderground v.1.15,2013-06-06 18:24:00,
2013-06-06 14:29:00,69.6,44.8,30.17,SE,141,10.0,16.0,41,0.00,,,0.00,Wunderground v.1.15,2013-06-06 18:29:00,
2013-06-06 14:34:00,69.3,44.6,30.17,SSE,164,5.0,10.0,41,0.00,,,0.00,Wunderground v.1.15,2013-06-06 18:34:00,
2013-06-06 14:39:00,69.5,44.1,30.17,SSW,213,5.0,11.0,40,0.00,,,0.00,Wunderground v.1.15,2013-06-06 18:39:00,
2013-06-06 14:44:00,69.3,44.6,30.17,SSW,197,4.0,12.0,41,0.00,,,0.00,Wunderground v.1.15,2013-06-06 18:44:00,
2013-06-06 14:49:00,69.3,46.4,30.17,South,171,5.0,14.0,44,0.00,,,0.00,Wunderground v.1.15,2013-06-06 18:49:00,
2013-06-06 14:54:00,69.2,43.8,30.17,SSE,167,6.0,15.0,40,0.00,,,0.00,Wunderground v.1.15,2013-06-06 18:54:00,
2013-06-06 14:59:00,68.8,42.8,30.17,South,188,4.0,15.0,39,0.00,,,0.00,Wunderground v.1.15,2013-06-06 18:59:00,
2013-06-06 15:04:00,68.6,45.8,30.16,SE,142,14.0,14.0,44,0.00,,,0.00,Wunderground v.1.15,2013-06-06 19:04:00,
2013-06-06 15:09:00,68.0,46.4,30.17,SSE,159,6.0,15.0,46,0.00,,,0.00,Wunderground v.1.15,2013-06-06 19:09:00,
2013-06-06 15:12:00,68.1,47.1,30.16,South,178,9.0,12.0,47,0.00,,,0.00,Wunderground v.1.15,2013-06-06 19:12:00,
2013-06-06 15:13:00,68.0,46.4,30.16,South,175,8.0,13.0,46,0.00,,,0.00,Wunderground v.1.15,2013-06-06 19:13:00,
2013-06-06 15:14:00,68.0,45.3,30.16,SSE,149,4.0,10.0,44,0.00,,,0.00,Wunderground v.1.15,2013-06-06 19:14:00,
2013-06-06 15:15:00,67.9,47.5,30.16,SSE,153,3.0,13.0,48,0.00,,,0.00,Wunderground v.1.15,2013-06-06 19:15:00,
2013-06-06 15:16:00,67.9,47.5,30.16,SSE,165,12.0,13.0,48,0.00,,,0.00,Wunderground v.1.15,2013-06-06 19:16:00,
2013-06-06 15:17:00,67.8,47.4,30.16,South,172,7.0,13.0,48,0.00,,,0.00,Wunderground v.1.15,2013-06-06 19:17:00,
2013-06-06 15:19:00,68.3,46.7,30.16,SSW,207,8.0,10.0,46,0.00,,,0.00,Wunderground v.1.15,2013-06-06 19:19:00,
2013-06-06 15:24:00,68.0,45.3,30.16,South,174,10.0,14.0,44,0.00,,,0.00,Wunderground v.1.15,2013-06-06 19:24:00,
2013-06-06 15:29:00,67.9,46.3,30.16,South,180,7.0,14.0,46,0.00,,,0.00,Wunderground v.1.15,2013-06-06 19:29:00,
2013-06-06 15:34:00,68.0,47.0,30.16,South,174,13.0,13.0,47,0.00,,,0.00,Wunderground v.1.15,2013-06-06 19:34:00,
2013-06-06 15:39:00,67.8,47.4,30.16,South,175,7.0,13.0,48,0.00,,,0.00,Wunderground v.1.15,2013-06-06 19:39:00,
2013-06-06 15:44:00,67.7,47.3,30.16,SE,144,6.0,12.0,48,0.00,,,0.00,Wunderground v.1.15,2013-06-06 19:44:00,
2013-06-06 15:49:00,67.4,46.5,30.15,South,184,3.0,14.0,47,0.00,,,0.00,Wunderground v.1.15,2013-06-06 19:49:00,
2013-06-06 15:54:00,67.2,47.4,30.16,SE,128,3.0,9.0,49,0.00,,,0.00,Wunderground v.1.15,2013-06-06 19:54:00,
2013-06-06 15:59:00,67.2,48.5,30.15,SSE,152,8.0,17.0,51,0.00,,,0.00,Wunderground v.1.15,2013-06-06 19:59:00,
2013-06-06 16:04:00,67.1,48.4,30.16,SSE,148,0.0,6.0,51,0.00,,,0.00,Wunderground v.1.15,2013-06-06 20:04:00,
2013-06-06 16:09:00,67.1,48.4,30.16,South,184,4.0,13.0,51,0.00,,,0.00,Wunderground v.1.15,2013-06-06 20:09:00,
2013-06-06 16:14:00,67.1,48.4,30.15,ESE,105,0.0,6.0,51,0.00,,,0.00,Wunderground v.1.15,2013-06-06 20:14:00,
2013-06-06 16:19:00,67.2,47.9,30.16,SSE,161,7.0,11.0,50,0.00,,,0.00,Wunderground v.1.15,2013-06-06 20:19:00,
2013-06-06 16:24:00,67.1,48.9,30.16,SSW,209,2.0,6.0,52,0.00,,,0.00,Wunderground v.1.15,2013-06-06 20:24:00,
2013-06-06 16:29:00,66.7,48.5,30.16,SSW,194,3.0,13.0,52,0.00,,,0.00,Wunderground v.1.15,2013-06-06 20:29:00,
2013-06-06 16:34:00,66.1,47.4,30.16,SSE,152,12.0,14.0,51,0.00,,,0.00,Wunderground v.1.15,2013-06-06 20:34:00,
2013-06-06 16:39:00,65.8,45.6,30.16,South,174,5.0,14.0,48,0.00,,,0.00,Wunderground v.1.15,2013-06-06 20:39:00,
2013-06-06 16:44:00,65.9,46.2,30.16,SSE,155,1.0,6.0,49,0.00,,,0.00,Wunderground v.1.15,2013-06-06 20:44:00,
2013-06-06 16:49:00,66.0,46.8,30.16,SSE,147,2.0,7.0,50,0.00,,,0.00,Wunderground v.1.15,2013-06-06 20:49:00,
2013-06-06 16:54:00,66.1,48.0,30.17,South,176,2.0,8.0,52,0.00,,,0.00,Wunderground v.1.15,2013-06-06 20:54:00,
2013-06-06 16:59:00,65.9,48.3,30.17,South,179,2.0,12.0,53,0.00,,,0.00,Wunderground v.1.15,2013-06-06 20:59:00,
2013-06-06 17:04:00,65.8,49.2,30.16,SSE,161,6.0,7.0,55,0.00,,,0.00,Wunderground v.1.15,2013-06-06 21:04:00,
2013-06-06 17:09:00,65.7,50.0,30.16,SE,146,3.0,8.0,57,0.00,,,0.00,Wunderground v.1.15,2013-06-06 21:09:00,
2013-06-06 17:14:00,65.7,50.5,30.16,SSE,163,0.0,5.0,58,0.00,,,0.00,Wunderground v.1.15,2013-06-06 21:14:00,
2013-06-06 17:19:00,65.8,50.6,30.15,SSE,162,2.0,6.0,58,0.00,,,0.00,Wunderground v.1.15,2013-06-06 21:19:00,
2013-06-06 17:24:00,65.8,51.1,30.15,SSW,195,3.0,4.0,59,0.00,,,0.00,Wunderground v.1.15,2013-06-06 21:24:00,
2013-06-06 17:29:00,65.3,50.6,30.15,SSW,192,3.0,12.0,59,0.00,,,0.00,Wunderground v.1.15,2013-06-06 21:29:00,
2013-06-06 17:34:00,64.9,50.7,30.16,SE,130,2.0,7.0,60,0.00,,,0.00,Wunderground v.1.15,2013-06-06 21:34:00,
2013-06-06 17:39:00,64.9,51.1,30.16,SSW,192,9.0,11.0,61,0.00,,,0.00,Wunderground v.1.15,2013-06-06 21:39:00,
2013-06-06 17:44:00,64.8,50.6,30.16,SW,223,2.0,6.0,60,0.00,,,0.00,Wunderground v.1.15,2013-06-06 21:44:00,
2013-06-06 17:49:00,64.7,50.5,30.16,South,191,3.0,7.0,60,0.00,,,0.00,Wunderground v.1.15,2013-06-06 21:49:00,
2013-06-06 17:54:00,64.6,49.9,30.16,South,187,3.0,7.0,59,0.00,,,0.00,Wunderground v.1.15,2013-06-06 21:54:00,
2013-06-06 17:59:00,64.3,49.7,30.16,South,178,1.0,9.0,59,0.00,,,0.00,Wunderground v.1.15,2013-06-06 21:59:00,
2013-06-06 18:04:00,64.2,49.1,30.16,SSW,194,2.0,5.0,58,0.00,,,0.00,Wunderground v.1.15,2013-06-06 22:04:00,
2013-06-06 18:09:00,64.1,49.0,30.16,South,185,4.0,8.0,58,0.00,,,0.00,Wunderground v.1.15,2013-06-06 22:09:00,
2013-06-06 18:14:00,64.0,49.4,30.16,SSE,161,2.0,11.0,59,0.00,,,0.00,Wunderground v.1.15,2013-06-06 22:14:00,
2013-06-06 18:19:00,64.0,49.8,30.16,South,184,4.0,11.0,60,0.00,,,0.00,Wunderground v.1.15,2013-06-06 22:19:00,
2013-06-06 18:24:00,63.9,49.7,30.17,SE,143,4.0,11.0,60,0.00,,,0.00,Wunderground v.1.15,2013-06-06 22:24:00,
2013-06-06 18:29:00,63.8,50.1,30.17,South,191,0.0,11.0,61,0.00,,,0.00,Wunderground v.1.15,2013-06-06 22:29:00,
2013-06-06 18:34:00,63.9,50.2,30.17,South,191,1.0,2.0,61,0.00,,,0.00,Wunderground v.1.15,2013-06-06 22:34:00,
2013-06-06 18:39:00,63.8,50.1,30.17,SE,139,7.0,8.0,61,0.00,,,0.00,Wunderground v.1.15,2013-06-06 22:39:00,
2013-06-06 18:44:00,63.5,49.4,30.17,South,182,0.0,5.0,60,0.00,,,0.00,Wunderground v.1.15,2013-06-06 22:44:00,
2013-06-06 18:49:00,63.3,49.6,30.17,SSW,198,2.0,7.0,61,0.00,,,0.00,Wunderground v.1.15,2013-06-06 22:49:00,
2013-06-06 18:54:00,63.2,50.0,30.17,South,182,1.0,5.0,62,0.00,,,0.00,Wunderground v.1.15,2013-06-06 22:54:00,
2013-06-06 18:59:00,63.1,50.3,30.17,SSE,152,2.0,8.0,63,0.00,,,0.00,Wunderground v.1.15,2013-06-06 22:59:00,
2013-06-06 19:04:00,63.0,49.8,30.17,SSE,159,2.0,5.0,62,0.00,,,0.00,Wunderground v.1.15,2013-06-06 23:04:00,
2013-06-06 19:09:00,62.8,47.3,30.17,ESE,102,0.0,9.0,57,0.00,,,0.00,Wunderground v.1.15,2013-06-06 23:09:00,
2013-06-06 19:14:00,62.6,46.2,30.17,South,191,1.0,3.0,55,0.00,,,0.00,Wunderground v.1.15,2013-06-06 23:14:00,
2013-06-06 19:19:00,62.6,46.2,30.18,South,173,0.0,9.0,55,0.00,,,0.00,Wunderground v.1.15,2013-06-06 23:19:00,
2013-06-06 19:24:00,62.5,46.1,30.18,South,169,4.0,5.0,55,0.00,,,0.00,Wunderground v.1.15,2013-06-06 23:24:00,
2013-06-06 19:29:00,62.3,46.4,30.18,South,178,3.0,5.0,56,0.00,,,0.00,Wunderground v.1.15,2013-06-06 23:29:00,
2013-06-06 19:34:00,62.3,46.4,30.18,SSE,159,0.0,5.0,56,0.00,,,0.00,Wunderground v.1.15,2013-06-06 23:34:00,
2013-06-06 19:39:00,62.2,47.2,30.18,South,179,2.0,5.0,58,0.00,,,0.00,Wunderground v.1.15,2013-06-06 23:39:00,
2013-06-06 19:44:00,62.1,47.1,30.17,South,180,0.0,2.0,58,0.00,,,0.00,Wunderground v.1.15,2013-06-06 23:44:00,
2013-06-06 19:49:00,62.0,47.0,30.17,South,180,2.0,3.0,58,0.00,,,0.00,Wunderground v.1.15,2013-06-06 23:49:00,
2013-06-06 19:54:00,61.8,47.8,30.18,South,180,1.0,1.0,60,0.00,,,0.00,Wunderground v.1.15,2013-06-06 23:54:00,
2013-06-06 19:59:00,61.6,48.4,30.18,South,180,0.0,2.0,62,0.00,,,0.00,Wunderground v.1.15,2013-06-06 23:59:00,
2013-06-06 20:04:00,61.5,48.4,30.18,South,180,2.0,2.0,62,0.00,,,0.00,Wunderground v.1.15,2013-06-07 00:04:00,
2013-06-06 20:09:00,61.4,47.8,30.18,SSE,168,0.0,5.0,61,0.00,,,0.00,Wunderground v.1.15,2013-06-07 00:09:00,
2013-06-06 20:14:00,61.4,48.3,30.19,SSE,168,0.0,1.0,62,0.00,,,0.00,Wunderground v.1.15,2013-06-07 00:14:00,
2013-06-06 20:19:00,61.3,48.2,30.18,SSE,168,1.0,2.0,62,0.00,,,0.00,Wunderground v.1.15,2013-06-07 00:19:00,
2013-06-06 20:25:00,61.0,48.3,30.18,SSE,168,0.0,1.0,63,0.00,,,0.00,Wunderground v.1.15,2013-06-07 00:25:00,
2013-06-06 20:30:00,60.7,48.0,30.17,SSE,168,1.0,2.0,63,0.00,,,0.00,Wunderground v.1.15,2013-06-07 00:30:00,
2013-06-06 20:35:00,60.5,47.8,30.17,SSE,168,0.0,1.0,63,0.00,,,0.00,Wunderground v.1.15,2013-06-07 00:35:00,
2013-06-06 20:40:00,60.4,48.6,30.17,SSE,168,1.0,1.0,65,0.00,,,0.00,Wunderground v.1.15,2013-06-07 00:40:00,
2013-06-06 20:45:00,60.2,48.0,30.17,SSE,168,0.0,1.0,64,0.00,,,0.00,Wunderground v.1.15,2013-06-07 00:45:00,
2013-06-06 20:50:00,60.2,48.8,30.17,SSE,168,0.0,1.0,66,0.00,,,0.00,Wunderground v.1.15,2013-06-07 00:50:00,
2013-06-06 20:55:00,60.1,48.7,30.17,SSE,168,0.0,1.0,66,0.00,,,0.00,Wunderground v.1.15,2013-06-07 00:55:00,
2013-06-06 21:00:00,60.1,48.3,30.16,SSE,168,1.0,1.0,65,0.00,,,0.00,Wunderground v.1.15,2013-06-07 01:00:00,
2013-06-06 21:05:00,60.1,48.3,30.17,SSE,168,0.0,2.0,65,0.00,,,0.00,Wunderground v.1.15,2013-06-07 01:05:00,
2013-06-06 21:10:00,60.0,48.2,30.17,SSE,168,0.0,2.0,65,0.00,,,0.00,Wunderground v.1.15,2013-06-07 01:10:00,
2013-06-06 21:15:00,60.0,48.2,30.17,SSE,168,2.0,2.0,65,0.00,,,0.00,Wunderground v.1.15,2013-06-07 01:15:00,
2013-06-06 21:20:00,60.0,48.2,30.17,SSE,168,1.0,4.0,65,0.00,,,0.00,Wunderground v.1.15,2013-06-07 01:20:00,
2013-06-06 21:25:00,59.9,48.5,30.17,SSE,168,1.0,2.0,66,0.00,,,0.00,Wunderground v.1.15,2013-06-07 01:25:00,
2013-06-06 21:30:00,59.9,48.5,30.16,SSE,168,0.0,2.0,66,0.00,,,0.00,Wunderground v.1.15,2013-06-07 01:30:00,
2013-06-06 21:35:00,59.9,48.5,30.16,SSE,168,1.0,4.0,66,0.00,,,0.00,Wunderground v.1.15,2013-06-07 01:35:00,
2013-06-06 21:40:00,59.8,48.8,30.16,SSE,168,1.0,4.0,67,0.00,,,0.00,Wunderground v.1.15,2013-06-07 01:40:00,
2013-06-06 21:45:00,59.8,49.2,30.16,SSE,160,1.0,2.0,68,0.00,,,0.00,Wunderground v.1.15,2013-06-07 01:45:00,
2013-06-06 21:50:00,59.7,49.1,30.15,NNW,339,0.0,4.0,68,0.00,,,0.00,Wunderground v.1.15,2013-06-07 01:50:00,
2013-06-06 21:55:00,59.6,49.4,30.15,South,177,3.0,3.0,69,0.00,,,0.00,Wunderground v.1.15,2013-06-07 01:55:00,
2013-06-06 22:00:00,59.6,49.8,30.15,SSE,160,1.0,4.0,70,0.00,,,0.00,Wunderground v.1.15,2013-06-07 02:00:00,
2013-06-06 22:05:00,59.6,50.2,30.16,SSE,161,0.0,5.0,71,0.00,,,0.00,Wunderground v.1.15,2013-06-07 02:05:00,
2013-06-06 22:10:00,59.5,50.5,30.15,SE,127,1.0,5.0,72,0.00,,,0.00,Wunderground v.1.15,2013-06-07 02:10:00,
2013-06-06 22:15:00,59.4,50.7,30.15,SE,144,2.0,3.0,73,0.00,,,0.00,Wunderground v.1.15,2013-06-07 02:15:00,
2013-06-06 22:20:00,59.3,51.0,30.15,SE,145,1.0,3.0,74,0.00,,,0.00,Wunderground v.1.15,2013-06-07 02:20:00,
2013-06-06 22:25:00,59.2,51.3,30.15,SE,145,1.0,2.0,75,0.00,,,0.00,Wunderground v.1.15,2013-06-07 02:25:00,
2013-06-06 22:30:00,59.1,51.9,30.16,SE,146,1.0,2.0,77,0.00,,,0.00,Wunderground v.1.15,2013-06-07 02:30:00,
2013-06-06 22:35:00,58.9,51.7,30.15,SE,146,1.0,3.0,77,0.00,,,0.00,Wunderground v.1.15,2013-06-07 02:35:00,
2013-06-06 22:40:00,58.7,51.9,30.16,SSE,148,0.0,3.0,78,0.00,,,0.00,Wunderground v.1.15,2013-06-07 02:40:00,
2013-06-06 22:45:00,58.4,52.3,30.15,SSE,148,0.0,1.0,80,0.00,,,0.00,Wunderground v.1.15,2013-06-07 02:45:00,
2013-06-06 22:50:00,58.2,52.4,30.15,SSE,148,0.0,1.0,81,0.00,,,0.00,Wunderground v.1.15,2013-06-07 02:50:00,
2013-06-06 22:55:00,58.0,52.2,30.15,SSE,148,0.0,1.0,81,0.00,,,0.00,Wunderground v.1.15,2013-06-07 02:55:00,
2013-06-06 23:00:00,57.8,52.7,30.16,SSE,148,0.0,1.0,83,0.00,,,0.01,Wunderground v.1.15,2013-06-07 03:00:00,
2013-06-06 23:05:00,57.5,52.7,30.15,SSE,148,0.0,1.0,84,0.00,,,0.01,Wunderground v.1.15,2013-06-07 03:05:00,
2013-06-06 23:10:00,57.2,52.4,30.16,SSE,148,0.0,1.0,84,0.00,,,0.01,Wunderground v.1.15,2013-06-07 03:10:00,
2013-06-06 23:15:00,57.0,52.2,30.15,SSE,148,0.0,1.0,84,0.00,,,0.01,Wunderground v.1.15,2013-06-07 03:15:00,
2013-06-06 23:20:00,56.9,52.4,30.16,SSE,148,0.0,1.0,85,0.00,,,0.01,Wunderground v.1.15,2013-06-07 03:20:00,
2013-06-06 23:25:00,56.7,52.2,30.16,SSE,148,0.0,1.0,85,0.00,,,0.01,Wunderground v.1.15,2013-06-07 03:25:00,
2013-06-06 23:30:00,56.7,52.6,30.15,SSE,148,0.0,1.0,86,0.00,,,0.01,Wunderground v.1.15,2013-06-07 03:30:00,
2013-06-06 23:35:00,56.7,52.6,30.15,SSE,148,0.0,1.0,86,0.00,,,0.01,Wunderground v.1.15,2013-06-07 03:35:00,
2013-06-06 23:38:00,56.5,52.4,30.14,SSE,148,0.0,1.0,86,0.00,,,0.01,Wunderground v.1.15,2013-06-07 03:38:00,
2013-06-06 23:39:00,56.5,52.4,30.14,SSE,148,0.0,1.0,86,0.00,,,0.01,Wunderground v.1.15,2013-06-07 03:39:00,
2013-06-06 23:40:00,56.6,52.5,30.15,SSE,148,0.0,1.0,86,0.00,,,0.01,Wunderground v.1.15,2013-06-07 03:40:00,
2013-06-06 23:41:00,56.5,52.7,30.14,SSE,148,0.0,1.0,87,0.00,,,0.02,Wunderground v.1.15,2013-06-07 03:41:00,
2013-06-06 23:42:00,56.5,52.7,30.14,SSE,148,0.0,1.0,87,0.00,,,0.02,Wunderground v.1.15,2013-06-07 03:42:00,
2013-06-06 23:43:00,56.4,52.6,30.14,SSE,148,0.0,1.0,87,0.00,,,0.00,Wunderground v.1.15,2013-06-07 03:43:00,
2013-06-06 23:44:00,56.4,52.6,30.14,SSE,148,0.0,1.0,87,0.00,,,0.00,Wunderground v.1.15,2013-06-07 03:44:00,
2013-06-06 23:45:00,56.6,52.5,30.15,SSE,148,0.0,1.0,86,0.00,,,0.01,Wunderground v.1.15,2013-06-07 03:45:00,
2013-06-06 23:50:00,56.6,52.5,30.15,SSE,148,0.0,2.0,86,0.00,,,0.01,Wunderground v.1.15,2013-06-07 03:50:00,
2013-06-06 23:55:00,56.5,52.4,30.15,SSE,148,1.0,1.0,86,0.00,,,0.01,Wunderground v.1.15,2013-06-07 03:55:00,